| time (UTC) | temp F | wind direction | speed MPH | gust MPH | rain 1hr in | rain 24hr in | rain mn in | humidity % | barometer mb |
| 20260506050558 | 77 | 106 | 2.0 | 4.0 | 0.00 | 0.00 | 0.00 | 80 | 1016.6 |
| 20260506050103 | 77 | 136 | 1.0 | 4.0 | 0.00 | 0.00 | 0.00 | 80 | 1016.6 |
| 20260506045057 | 77 | 112 | 1.0 | 7.0 | 0.00 | 0.00 | 0.00 | 80 | 1016.6 |
| 20260506044714 | 77 | 67 | 1.0 | 7.0 | 0.00 | 0.00 | 0.00 | 80 | 1016.6 |
| 20260506044102 | 77 | 106 | 1.0 | 6.0 | 0.00 | 0.00 | 0.00 | 80 | 1016.7 |
| 20260506043600 | 77 | 110 | 1.0 | 4.0 | 0.00 | 0.00 | 0.00 | 80 | 1016.8 |
| 20260506043109 | 77 | 47 | 2.0 | 4.0 | 0.00 | 0.00 | 0.00 | 80 | 1016.8 |
| 20260506042601 | 77 | 105 | 0.0 | 6.0 | 0.00 | 0.00 | 0.00 | 81 | 1016.7 |
| 20260506042101 | 77 | 98 | 2.0 | 6.0 | 0.00 | 0.00 | 0.00 | 80 | 1016.7 |
| 20260506041605 | 77 | 120 | 1.0 | 6.0 | 0.00 | 0.00 | 0.00 | 81 | 1016.8 |
| 20260506041058 | 77 | 350 | 1.0 | 6.0 | 0.00 | 0.00 | 0.00 | 81 | 1016.8 |
| 20260506040602 | 77 | 92 | 2.0 | 8.0 | 0.00 | 0.00 | 0.00 | 80 | 1016.8 |
| 20260506040110 | 77 | 133 | 1.0 | 8.0 | 0.00 | 0.00 | 0.00 | 80 | 1016.8 |
| 20260506035600 | 77 | 123 | 3.0 | 8.0 | 0.00 | 0.00 | 0.00 | 80 | 1016.8 |
| 20260506035100 | 77 | 107 | 1.0 | 6.0 | 0.00 | 0.00 | 0.00 | 80 | 1016.7 |
| 20260506034626 | 77 | 120 | 2.0 | 7.0 | 0.00 | 0.00 | 0.00 | 80 | 1016.9 |
| 20260506034056 | 77 | 80 | 2.0 | 7.0 | 0.00 | 0.00 | 0.00 | 80 | 1016.8 |
| 20260506033556 | 77 | 115 | 1.0 | 6.0 | 0.00 | 0.00 | 0.00 | 80 | 1016.9 |
| 20260506033104 | 77 | 129 | 0.0 | 3.0 | 0.00 | 0.00 | 0.00 | 80 | 1016.9 |
| 20260506032557 | 77 | 109 | 1.0 | 4.0 | 0.00 | 0.00 | 0.00 | 80 | 1016.8 |
| 20260506032057 | 77 | 119 | 1.0 | 6.0 | 0.00 | 0.00 | 0.00 | 80 | 1016.8 |
| 20260506031606 | 77 | 62 | 2.0 | 6.0 | 0.00 | 0.00 | 0.00 | 80 | 1016.8 |
| 20260506031058 | 77 | 94 | 1.0 | 8.0 | 0.00 | 0.00 | 0.00 | 79 | 1016.8 |
| 20260506030600 | 77 | 95 | 2.0 | 8.0 | 0.00 | 0.00 | 0.00 | 79 | 1016.7 |
| 20260506030100 | 77 | 92 | 2.0 | 8.0 | 0.00 | 0.00 | 0.00 | 79 | 1016.7 |
| 20260506025601 | 77 | 94 | 2.0 | 6.0 | 0.00 | 0.00 | 0.00 | 79 | 1016.6 |
| 20260506025101 | 77 | 121 | 2.0 | 6.0 | 0.00 | 0.00 | 0.00 | 79 | 1016.4 |
| 20260506024600 | 77 | 0 | 1.0 | 7.0 | 0.00 | 0.00 | 0.00 | 79 | 1016.4 |
| 20260506024100 | 77 | 113 | 2.0 | 7.0 | 0.00 | 0.00 | 0.00 | 79 | 1016.4 |
| 20260506023559 | 77 | 107 | 1.0 | 7.0 | 0.00 | 0.00 | 0.00 | 79 | 1016.3 |
| 20260506023112 | 77 | 84 | 2.0 | 9.0 | 0.00 | 0.00 | 0.00 | 79 | 1016.3 |
| 20260506022557 | 77 | 94 | 3.0 | 9.0 | 0.00 | 0.00 | 0.00 | 79 | 1016.2 |
| 20260506022057 | 77 | 119 | 2.0 | 7.0 | 0.00 | 0.00 | 0.00 | 79 | 1016.1 |
| 20260506021559 | 77 | 0 | 2.0 | 7.0 | 0.00 | 0.00 | 0.00 | 79 | 1016.0 |
| 20260506021057 | 77 | 0 | 2.0 | 9.0 | 0.00 | 0.00 | 0.00 | 79 | 1016.1 |
| 20260506020557 | 77 | 94 | 2.0 | 9.0 | 0.00 | 0.00 | 0.00 | 79 | 1016.0 |
| 20260506020059 | 77 | 123 | 3.0 | 9.0 | 0.00 | 0.00 | 0.00 | 79 | 1015.9 |
| 20260506015601 | 77 | 0 | 4.0 | 8.0 | 0.00 | 0.00 | 0.00 | 79 | 1015.9 |
| 20260506015101 | 77 | 38 | 3.0 | 7.0 | 0.00 | 0.00 | 0.00 | 79 | 1016.0 |
| 20260506014601 | 77 | 91 | 1.0 | 7.0 | 0.00 | 0.00 | 0.00 | 79 | 1015.9 |
| 20260506014100 | 77 | 107 | 3.0 | 7.0 | 0.00 | 0.00 | 0.00 | 79 | 1015.8 |
| 20260506013600 | 77 | 119 | 1.0 | 11.0 | 0.00 | 0.00 | 0.00 | 79 | 1015.8 |
| 20260506013059 | 77 | 91 | 2.0 | 11.0 | 0.00 | 0.00 | 0.00 | 79 | 1015.8 |
| 20260506012600 | 77 | 130 | 2.0 | 9.0 | 0.00 | 0.00 | 0.00 | 79 | 1015.8 |
| 20260506012100 | 77 | 119 | 3.0 | 9.0 | 0.00 | 0.00 | 0.00 | 79 | 1015.7 |
| 20260506011626 | 77 | 68 | 3.0 | 9.0 | 0.00 | 0.00 | 0.00 | 79 | 1015.7 |
| 20260506011059 | 77 | 105 | 2.0 | 9.0 | 0.00 | 0.00 | 0.00 | 79 | 1015.8 |
| 20260506010558 | 78 | 107 | 2.0 | 9.0 | 0.00 | 0.00 | 0.00 | 79 | 1015.8 |
| 20260506010104 | 78 | 80 | 1.0 | 10.0 | 0.00 | 0.00 | 0.00 | 79 | 1015.9 |
| 20260506005558 | 77 | 59 | 3.0 | 10.0 | 0.00 | 0.00 | 0.00 | 79 | 1015.8 |
| 20260506005057 | 77 | 90 | 3.0 | 9.0 | 0.00 | 0.00 | 0.00 | 79 | 1015.8 |
| 20260506004626 | 78 | 112 | 2.0 | 8.0 | 0.00 | 0.00 | 0.00 | 79 | 1015.9 |
| 20260506004058 | 78 | 98 | 2.0 | 9.0 | 0.00 | 0.00 | 0.00 | 79 | 1016.0 |
| 20260506003600 | 78 | 58 | 4.0 | 10.0 | 0.00 | 0.00 | 0.00 | 79 | 1015.9 |
| 20260506003111 | 78 | 113 | 5.0 | 15.0 | 0.00 | 0.00 | 0.00 | 79 | 1015.9 |
| 20260506002558 | 78 | 53 | 4.0 | 15.0 | 0.00 | 0.00 | 0.00 | 80 | 1015.8 |
| 20260506002058 | 78 | 42 | 4.0 | 11.0 | 0.00 | 0.00 | 0.00 | 80 | 1015.8 |
| 20260506001601 | 78 | 42 | 4.0 | 13.0 | 0.00 | 0.00 | 0.00 | 80 | 1015.7 |
| 20260506001101 | 78 | 71 | 4.0 | 13.0 | 0.00 | 0.00 | 0.00 | 80 | 1015.7 |
| 20260506000600 | 78 | 58 | 4.0 | 13.0 | 0.00 | 0.00 | 0.00 | 79 | 1015.5 |
| 20260506000059 | 78 | 76 | 3.0 | 11.0 | 0.00 | 0.00 | 0.00 | 79 | 1015.5 |
| 20260505235557 | 79 | 24 | 3.0 | 13.0 | 0.00 | 0.01 | 0.00 | 78 | 1015.5 |
| 20260505235100 | 79 | 88 | 3.0 | 13.0 | 0.00 | 0.01 | 0.00 | 78 | 1015.4 |
| 20260505234637 | 79 | 88 | 4.0 | 11.0 | 0.00 | 0.01 | 0.00 | 77 | 1015.2 |
| 20260505234103 | 79 | 90 | 4.0 | 11.0 | 0.00 | 0.01 | 0.00 | 77 | 1015.2 |
| 20260505233559 | 79 | 119 | 3.0 | 9.0 | 0.00 | 0.01 | 0.00 | 77 | 1015.2 |
| 20260505233112 | 79 | 63 | 2.0 | 9.0 | 0.00 | 0.01 | 0.00 | 77 | 1015.2 |
| 20260505232558 | 79 | 113 | 4.0 | 8.0 | 0.00 | 0.01 | 0.00 | 77 | 1015.1 |
| 20260505232100 | 79 | 56 | 3.0 | 10.0 | 0.00 | 0.01 | 0.00 | 77 | 1014.8 |
| 20260505231600 | 79 | 64 | 2.0 | 10.0 | 0.00 | 0.01 | 0.00 | 77 | 1014.6 |
| 20260505231100 | 79 | 97 | 4.0 | 9.0 | 0.00 | 0.01 | 0.00 | 76 | 1014.7 |
| 20260505230557 | 79 | 116 | 3.0 | 9.0 | 0.00 | 0.01 | 0.00 | 76 | 1014.9 |
| 20260505230105 | 80 | 69 | 2.0 | 10.0 | 0.00 | 0.01 | 0.00 | 76 | 1014.8 |
| 20260505225601 | 80 | 146 | 4.0 | 10.0 | 0.00 | 0.01 | 0.00 | 76 | 1014.7 |
| 20260505225102 | 80 | 34 | 4.0 | 10.0 | 0.00 | 0.01 | 0.00 | 77 | 1014.6 |
| 20260505224558 | 79 | 69 | 4.0 | 10.0 | 0.00 | 0.01 | 0.00 | 76 | 1014.6 |
| 20260505224100 | 80 | 123 | 4.0 | 12.0 | 0.00 | 0.01 | 0.00 | 76 | 1014.7 |
| 20260505223557 | 80 | 74 | 3.0 | 14.0 | 0.00 | 0.01 | 0.00 | 76 | 1014.6 |
| 20260505223059 | 80 | 38 | 4.0 | 14.0 | 0.00 | 0.01 | 0.00 | 76 | 1014.6 |
| 20260505222559 | 80 | 75 | 5.0 | 14.0 | 0.00 | 0.01 | 0.00 | 77 | 1014.7 |
| 20260505222100 | 80 | 88 | 4.0 | 12.0 | 0.00 | 0.01 | 0.00 | 77 | 1014.6 |
| 20260505221604 | 80 | 134 | 5.0 | 11.0 | 0.00 | 0.01 | 0.00 | 77 | 1014.6 |
| 20260505221058 | 80 | 54 | 5.0 | 13.0 | 0.00 | 0.01 | 0.00 | 77 | 1014.7 |
| 20260505220558 | 80 | 108 | 5.0 | 13.0 | 0.00 | 0.01 | 0.00 | 77 | 1014.6 |
| 20260505220106 | 80 | 109 | 3.0 | 9.0 | 0.00 | 0.01 | 0.00 | 77 | 1014.6 |
| 20260505215558 | 81 | 10 | 3.0 | 11.0 | 0.00 | 0.01 | 0.00 | 77 | 1014.5 |
| 20260505215058 | 81 | 62 | 4.0 | 11.0 | 0.00 | 0.01 | 0.00 | 76 | 1014.4 |
| 20260505214605 | 81 | 93 | 4.0 | 11.0 | 0.00 | 0.01 | 0.00 | 77 | 1014.2 |
| 20260505214058 | 80 | 74 | 4.0 | 11.0 | 0.00 | 0.01 | 0.00 | 77 | 1014.2 |
| 20260505213557 | 80 | 67 | 5.0 | 12.0 | 0.00 | 0.01 | 0.00 | 76 | 1014.1 |
| 20260505213105 | 81 | 108 | 5.0 | 13.0 | 0.00 | 0.01 | 0.00 | 76 | 1014.2 |
| 20260505212557 | 81 | 21 | 5.0 | 13.0 | 0.00 | 0.01 | 0.00 | 75 | 1014.1 |
| 20260505212057 | 81 | 75 | 6.0 | 13.0 | 0.00 | 0.01 | 0.00 | 75 | 1014.1 |
| 20260505211603 | 82 | 235 | 4.0 | 12.0 | 0.00 | 0.01 | 0.00 | 75 | 1014.1 |
| 20260505211102 | 82 | 15 | 6.0 | 12.0 | 0.00 | 0.01 | 0.00 | 75 | 1014.2 |
| 20260505210600 | 82 | 56 | 4.0 | 11.0 | 0.00 | 0.01 | 0.00 | 73 | 1014.1 |
| 20260505210058 | 82 | 23 | 4.0 | 11.0 | 0.00 | 0.01 | 0.00 | 73 | 1014.1 |
| 20260505205600 | 82 | 5 | 4.0 | 11.0 | 0.00 | 0.01 | 0.00 | 73 | 1014.0 |
| 20260505205100 | 82 | 15 | 4.0 | 12.0 | 0.00 | 0.01 | 0.00 | 74 | 1014.1 |
| 20260505204608 | 82 | 113 | 5.0 | 12.0 | 0.00 | 0.01 | 0.00 | 73 | 1014.1 |
| 20260505204101 | 83 | 115 | 4.0 | 12.0 | 0.00 | 0.01 | 0.00 | 72 | 1014.2 |
| 20260505203558 | 83 | 67 | 3.0 | 13.0 | 0.00 | 0.01 | 0.00 | 73 | 1014.2 |
| 20260505203059 | 83 | 141 | 5.0 | 13.0 | 0.00 | 0.01 | 0.00 | 72 | 1014.2 |
| 20260505202601 | 83 | 42 | 4.0 | 12.0 | 0.00 | 0.01 | 0.00 | 71 | 1014.3 |
| 20260505202101 | 83 | 98 | 3.0 | 10.0 | 0.00 | 0.01 | 0.00 | 71 | 1014.3 |
| 20260505201559 | 83 | 105 | 3.0 | 10.0 | 0.00 | 0.01 | 0.00 | 71 | 1014.2 |
| 20260505201118 | 84 | 104 | 3.0 | 10.0 | 0.00 | 0.01 | 0.00 | 71 | 1014.3 |
| 20260505200601 | 84 | 104 | 3.0 | 10.0 | 0.00 | 0.01 | 0.00 | 71 | 1014.4 |
| 20260505200104 | 83 | 147 | 4.0 | 10.0 | 0.00 | 0.01 | 0.00 | 71 | 1014.4 |
| 20260505195557 | 83 | 129 | 4.0 | 11.0 | 0.00 | 0.01 | 0.00 | 71 | 1014.4 |
| 20260505195100 | 83 | 42 | 5.0 | 12.0 | 0.00 | 0.01 | 0.00 | 71 | 1014.4 |
| 20260505194558 | 83 | 11 | 4.0 | 12.0 | 0.00 | 0.01 | 0.00 | 71 | 1014.5 |
| 20260505194057 | 83 | 106 | 4.0 | 12.0 | 0.00 | 0.01 | 0.00 | 71 | 1014.5 |
| 20260505193600 | 84 | 60 | 4.0 | 11.0 | 0.00 | 0.01 | 0.00 | 71 | 1014.7 |
| 20260505193101 | 84 | 90 | 4.0 | 10.0 | 0.00 | 0.01 | 0.00 | 70 | 1014.7 |
| 20260505192557 | 84 | 64 | 4.0 | 10.0 | 0.00 | 0.01 | 0.00 | 70 | 1014.7 |
| 20260505192101 | 85 | 67 | 3.0 | 9.0 | 0.00 | 0.01 | 0.00 | 70 | 1014.8 |
| 20260505191601 | 85 | 67 | 2.0 | 10.0 | 0.00 | 0.01 | 0.00 | 70 | 1014.8 |
| 20260505191100 | 84 | 132 | 3.0 | 10.0 | 0.00 | 0.01 | 0.00 | 71 | 1014.9 |
| 20260505190559 | 85 | 109 | 2.0 | 10.0 | 0.00 | 0.01 | 0.00 | 70 | 1014.9 |
| 20260505190059 | 85 | 141 | 1.0 | 10.0 | 0.00 | 0.01 | 0.00 | 72 | 1014.9 |
| 20260505185557 | 84 | 0 | 4.0 | 10.0 | 0.00 | 0.02 | 0.00 | 70 | 1015.0 |
| 20260505185059 | 84 | 88 | 4.0 | 9.0 | 0.00 | 0.02 | 0.00 | 70 | 1015.0 |
| 20260505184608 | 84 | 88 | 4.0 | 12.0 | 0.00 | 0.02 | 0.00 | 69 | 1015.0 |
| 20260505184101 | 84 | 59 | 4.0 | 12.0 | 0.00 | 0.02 | 0.00 | 70 | 1015.2 |
| 20260505183600 | 84 | 90 | 4.0 | 12.0 | 0.00 | 0.02 | 0.00 | 71 | 1015.0 |
| 20260505183100 | 84 | 132 | 3.0 | 13.0 | 0.00 | 0.02 | 0.00 | 71 | 1015.0 |
| 20260505182557 | 84 | 57 | 5.0 | 13.0 | 0.00 | 0.02 | 0.00 | 70 | 1015.1 |
| 20260505182103 | 84 | 126 | 4.0 | 12.0 | 0.00 | 0.02 | 0.00 | 70 | 1015.2 |
| 20260505181601 | 85 | 66 | 4.0 | 11.0 | 0.00 | 0.02 | 0.00 | 70 | 1015.2 |
| 20260505181103 | 85 | 119 | 4.0 | 9.0 | 0.00 | 0.02 | 0.00 | 71 | 1015.2 |
| 20260505180559 | 84 | 49 | 4.0 | 9.0 | 0.00 | 0.02 | 0.00 | 70 | 1015.3 |
| 20260505175558 | 84 | 0 | 3.0 | 11.0 | 0.00 | 0.08 | 0.00 | 71 | 1015.2 |
| 20260505175103 | 84 | 112 | 4.0 | 11.0 | 0.00 | 0.08 | 0.00 | 71 | 1015.2 |
| 20260505174613 | 83 | 90 | 3.0 | 11.0 | 0.00 | 0.08 | 0.00 | 72 | 1015.3 |
| 20260505174059 | 83 | 92 | 4.0 | 10.0 | 0.00 | 0.08 | 0.00 | 73 | 1015.3 |
| 20260505173556 | 83 | 86 | 3.0 | 9.0 | 0.00 | 0.08 | 0.00 | 74 | 1015.3 |
| 20260505173056 | 83 | 96 | 2.0 | 10.0 | 0.00 | 0.08 | 0.00 | 73 | 1015.4 |
| 20260505172601 | 83 | 51 | 4.0 | 10.0 | 0.00 | 0.08 | 0.00 | 73 | 1015.3 |
| 20260505172057 | 84 | 58 | 2.0 | 9.0 | 0.00 | 0.08 | 0.00 | 72 | 1015.5 |
| 20260505171600 | 84 | 66 | 4.0 | 9.0 | 0.00 | 0.08 | 0.00 | 71 | 1015.5 |
| 20260505171100 | 85 | 91 | 3.0 | 9.0 | 0.00 | 0.08 | 0.00 | 71 | 1015.5 |
| 20260505170557 | 85 | 89 | 3.0 | 11.0 | 0.00 | 0.08 | 0.00 | 69 | 1015.5 |
| 20260505170138 | 85 | 248 | 2.0 | 11.0 | 0.00 | 0.08 | 0.00 | 72 | 1015.6 |
| 20260505165557 | 84 | 76 | 3.0 | 10.0 | 0.00 | 0.15 | 0.00 | 70 | 1015.7 |
| 20260505165100 | 85 | 191 | 1.0 | 12.0 | 0.00 | 0.15 | 0.00 | 70 | 1015.7 |
| 20260505164559 | 85 | 85 | 2.0 | 12.0 | 0.00 | 0.15 | 0.00 | 70 | 1015.7 |
| 20260505164103 | 85 | 138 | 3.0 | 12.0 | 0.00 | 0.15 | 0.00 | 69 | 1015.7 |
| 20260505163600 | 85 | 132 | 3.0 | 12.0 | 0.00 | 0.15 | 0.00 | 71 | 1015.8 |
| 20260505163059 | 84 | 153 | 2.0 | 12.0 | 0.00 | 0.15 | 0.00 | 70 | 1015.9 |
| 20260505162559 | 85 | 53 | 2.0 | 10.0 | 0.00 | 0.15 | 0.00 | 71 | 1015.9 |
| 20260505162059 | 85 | 147 | 2.0 | 10.0 | 0.00 | 0.15 | 0.00 | 72 | 1016.0 |
| 20260505161604 | 84 | 123 | 4.0 | 11.0 | 0.00 | 0.15 | 0.00 | 72 | 1015.9 |
| 20260505161101 | 83 | 80 | 4.0 | 11.0 | 0.00 | 0.15 | 0.00 | 72 | 1015.9 |
| 20260505160600 | 84 | 112 | 3.0 | 9.0 | 0.00 | 0.15 | 0.00 | 72 | 1015.9 |
| 20260505153100 | 84 | 24 | 3.0 | 9.0 | 0.00 | 0.29 | 0.00 | 70 | 1015.7 |
| 20260505152559 | 84 | 0 | 1.0 | 12.0 | 0.00 | 0.29 | 0.00 | 72 | 1015.8 |
| 20260505152056 | 84 | 41 | 4.0 | 12.0 | 0.00 | 0.29 | 0.00 | 71 | 1015.8 |
| 20260505151558 | 85 | 135 | 1.0 | 7.0 | 0.00 | 0.29 | 0.00 | 72 | 1015.8 |
| 20260505151100 | 84 | 69 | 1.0 | 9.0 | 0.00 | 0.29 | 0.00 | 73 | 1015.8 |
| 20260505150602 | 84 | 111 | 3.0 | 9.0 | 0.00 | 0.29 | 0.00 | 73 | 1015.9 |
| 20260505140600 | 81 | 87 | 2.0 | 7.0 | 0.00 | 0.47 | 0.00 | 76 | 1015.8 |
| 20260505124600 | 78 | 97 | 0.0 | 4.0 | 0.00 | 0.47 | 0.00 | 83 | 1015.1 |
| 20260505124100 | 78 | 59 | 1.0 | 5.0 | 0.00 | 0.47 | 0.00 | 84 | 1015.1 |
| 20260505123603 | 77 | 119 | 2.0 | 5.0 | 0.00 | 0.47 | 0.00 | 85 | 1015.0 |
| 20260505123114 | 77 | 58 | 1.0 | 4.0 | 0.00 | 0.47 | 0.00 | 86 | 1015.0 |
| 20260505122600 | 76 | 90 | 0.0 | 5.0 | 0.00 | 0.47 | 0.00 | 87 | 1014.9 |
| 20260505122100 | 75 | 0 | 2.0 | 5.0 | 0.00 | 0.47 | 0.00 | 87 | 1014.9 |
| 20260505121557 | 75 | 0 | 0.0 | 0.0 | 0.00 | 0.47 | 0.00 | 88 | 1014.8 |
| 20260505121058 | 75 | 0 | 0.0 | 0.0 | 0.00 | 0.47 | 0.00 | 88 | 1014.8 |
| 20260505120557 | 74 | 0 | 0.0 | 0.0 | 0.00 | 0.47 | 0.00 | 88 | 1014.8 |
| 20260505120100 | 73 | 0 | 0.0 | 0.0 | 0.00 | 0.47 | 0.00 | 87 | 1014.9 |
| 20260505115601 | 73 | 0 | 0.0 | 0.0 | 0.00 | 0.47 | 0.00 | 87 | 1014.8 |
| 20260505115059 | 73 | 0 | 0.0 | 0.0 | 0.00 | 0.47 | 0.00 | 87 | 1014.7 |
| 20260505114614 | 73 | 0 | 0.0 | 0.0 | 0.00 | 0.47 | 0.00 | 87 | 1014.7 |
| 20260505114100 | 73 | 0 | 0.0 | 0.0 | 0.00 | 0.47 | 0.00 | 87 | 1014.5 |
| 20260505113603 | 73 | 0 | 0.0 | 0.0 | 0.00 | 0.47 | 0.00 | 87 | 1014.4 |
| 20260505113058 | 73 | 0 | 0.0 | 0.0 | 0.00 | 0.47 | 0.00 | 86 | 1014.4 |
| 20260505112603 | 73 | 0 | 0.0 | 0.0 | 0.00 | 0.47 | 0.00 | 86 | 1014.5 |
| 20260505112059 | 73 | 0 | 0.0 | 0.0 | 0.00 | 0.47 | 0.00 | 87 | 1014.5 |
| 20260505111609 | 73 | 0 | 0.0 | 0.0 | 0.00 | 0.47 | 0.00 | 87 | 1014.5 |
| 20260505111100 | 73 | 0 | 0.0 | 0.0 | 0.00 | 0.47 | 0.00 | 87 | 1014.4 |
| 20260505110602 | 73 | 0 | 0.0 | 0.0 | 0.00 | 0.47 | 0.00 | 86 | 1014.4 |
| 20260505102100 | 74 | 0 | 0.0 | 0.0 | 0.00 | 0.47 | 0.00 | 86 | 1013.8 |
| 20260505101558 | 74 | 0 | 0.0 | 0.0 | 0.00 | 0.47 | 0.00 | 86 | 1013.8 |
| 20260505101102 | 74 | 0 | 0.0 | 0.0 | 0.00 | 0.47 | 0.00 | 86 | 1013.8 |
| 20260505100600 | 74 | 0 | 0.0 | 0.0 | 0.00 | 0.47 | 0.00 | 86 | 1013.8 |
| 20260505095600 | 74 | 0 | 0.0 | 3.0 | 0.00 | 0.47 | 0.00 | 86 | 1013.5 |
| 20260505095101 | 74 | 0 | 0.0 | 3.0 | 0.00 | 0.47 | 0.00 | 86 | 1013.5 |
| 20260505094559 | 74 | 0 | 0.0 | 3.0 | 0.00 | 0.47 | 0.00 | 86 | 1013.4 |
| 20260505094100 | 74 | 0 | 0.0 | 0.0 | 0.00 | 0.47 | 0.00 | 86 | 1013.6 |
| 20260505093600 | 74 | 0 | 0.0 | 4.0 | 0.00 | 0.47 | 0.00 | 86 | 1013.5 |
| 20260505093057 | 74 | 0 | 0.0 | 4.0 | 0.00 | 0.47 | 0.00 | 86 | 1013.4 |
| 20260505092600 | 74 | 0 | 0.0 | 4.0 | 0.00 | 0.47 | 0.00 | 86 | 1013.4 |
| 20260505092103 | 74 | 0 | 0.0 | 0.0 | 0.00 | 0.47 | 0.00 | 86 | 1013.4 |
| 20260505091604 | 74 | 0 | 0.0 | 4.0 | 0.00 | 0.47 | 0.00 | 86 | 1013.3 |
| 20260505091059 | 75 | 0 | 0.0 | 6.0 | 0.00 | 0.47 | 0.00 | 86 | 1013.3 |
| 20260505090559 | 75 | 360 | 0.0 | 6.0 | 0.00 | 0.47 | 0.00 | 86 | 1013.2 |
| 20260505090101 | 74 | 19 | 0.0 | 4.0 | 0.00 | 0.47 | 0.00 | 86 | 1013.2 |
| 20260505085559 | 74 | 13 | 1.0 | 4.0 | 0.00 | 0.47 | 0.00 | 86 | 1013.2 |
| 20260505085100 | 74 | 80 | 1.0 | 6.0 | 0.00 | 0.47 | 0.00 | 86 | 1013.2 |
| 20260505084557 | 74 | 78 | 1.0 | 6.0 | 0.00 | 0.47 | 0.00 | 86 | 1013.3 |
| 20260505084100 | 74 | 63 | 1.0 | 4.0 | 0.00 | 0.47 | 0.00 | 86 | 1013.3 |
| 20260505083559 | 74 | 49 | 0.0 | 6.0 | 0.00 | 0.47 | 0.00 | 86 | 1013.1 |
| 20260505083118 | 74 | 0 | 2.0 | 7.0 | 0.00 | 0.47 | 0.00 | 85 | 1013.1 |
| 20260505082600 | 74 | 80 | 1.0 | 8.0 | 0.00 | 0.47 | 0.00 | 85 | 1013.2 |
| 20260505082100 | 74 | 5 | 3.0 | 8.0 | 0.00 | 0.47 | 0.00 | 86 | 1013.2 |
| 20260505081559 | 74 | 81 | 1.0 | 6.0 | 0.00 | 0.47 | 0.00 | 86 | 1013.3 |
| 20260505081100 | 74 | 95 | 2.0 | 7.0 | 0.00 | 0.47 | 0.00 | 86 | 1013.4 |
| 20260505080556 | 74 | 98 | 1.0 | 9.0 | 0.00 | 0.47 | 0.00 | 85 | 1013.4 |
| 20260505080056 | 75 | 96 | 3.0 | 10.0 | 0.00 | 0.47 | 0.00 | 86 | 1013.3 |
| 20260505075600 | 75 | 50 | 1.0 | 10.0 | 0.00 | 0.49 | 0.00 | 86 | 1013.6 |
| 20260505075100 | 75 | 45 | 3.0 | 9.0 | 0.00 | 0.49 | 0.00 | 86 | 1013.6 |
| 20260505074559 | 75 | 23 | 3.0 | 9.0 | 0.00 | 0.49 | 0.00 | 86 | 1013.7 |
| 20260505074100 | 75 | 76 | 2.0 | 9.0 | 0.00 | 0.49 | 0.00 | 86 | 1013.7 |
| 20260505073600 | 75 | 67 | 3.0 | 9.0 | 0.00 | 0.49 | 0.00 | 86 | 1013.7 |
| 20260505073105 | 75 | 78 | 4.0 | 9.0 | 0.00 | 0.49 | 0.00 | 86 | 1013.8 |
| 20260505072601 | 75 | 26 | 2.0 | 8.0 | 0.00 | 0.49 | 0.00 | 86 | 1013.5 |
| 20260505072059 | 75 | 26 | 1.0 | 7.0 | 0.00 | 0.49 | 0.00 | 86 | 1013.5 |
| 20260505071601 | 75 | 55 | 1.0 | 7.0 | 0.00 | 0.49 | 0.00 | 86 | 1013.5 |
| 20260505071059 | 75 | 34 | 1.0 | 5.0 | 0.00 | 0.49 | 0.00 | 86 | 1013.5 |
| 20260505070559 | 74 | 46 | 1.0 | 4.0 | 0.00 | 0.49 | 0.00 | 86 | 1013.5 |
| 20260505070059 | 74 | 339 | 0.0 | 5.0 | 0.00 | 0.49 | 0.00 | 86 | 1013.6 |
| 20260505065558 | 75 | 38 | 0.0 | 6.0 | 0.00 | 0.49 | 0.00 | 85 | 1013.6 |
| 20260505065101 | 74 | 0 | 1.0 | 6.0 | 0.00 | 0.49 | 0.00 | 85 | 1013.5 |
| 20260505064604 | 74 | 63 | 1.0 | 6.0 | 0.00 | 0.49 | 0.00 | 85 | 1013.6 |
| 20260505064058 | 74 | 0 | 2.0 | 6.0 | 0.00 | 0.49 | 0.00 | 85 | 1013.6 |
| 20260505063558 | 74 | 37 | 1.0 | 6.0 | 0.00 | 0.49 | 0.00 | 85 | 1013.9 |
| 20260505063057 | 75 | 70 | 1.0 | 6.0 | 0.00 | 0.49 | 0.00 | 85 | 1014.0 |
| 20260505062559 | 75 | 5 | 2.0 | 5.0 | 0.00 | 0.49 | 0.00 | 85 | 1014.3 |
| 20260505062100 | 75 | 0 | 1.0 | 9.0 | 0.00 | 0.49 | 0.00 | 85 | 1014.2 |
| 20260505061604 | 75 | 19 | 2.0 | 9.0 | 0.00 | 0.49 | 0.00 | 85 | 1014.3 |
| 20260505061057 | 75 | 42 | 1.0 | 5.0 | 0.00 | 0.49 | 0.00 | 85 | 1014.3 |
| 20260505060557 | 75 | 0 | 0.0 | 7.0 | 0.00 | 0.49 | 0.00 | 85 | 1014.3 |
| 20260505060104 | 75 | 40 | 2.0 | 7.0 | 0.00 | 0.49 | 0.00 | 85 | 1014.3 |
| 20260505055558 | 75 | 53 | 2.0 | 8.0 | 0.00 | 0.49 | 0.00 | 85 | 1014.3 |
| 20260505055101 | 75 | 0 | 2.0 | 8.0 | 0.00 | 0.49 | 0.00 | 85 | 1014.3 |
| 20260505054604 | 75 | 61 | 1.0 | 5.0 | 0.00 | 0.49 | 0.00 | 85 | 1014.3 |
| 20260505054059 | 75 | 24 | 1.0 | 8.0 | 0.00 | 0.49 | 0.00 | 85 | 1014.6 |
| 20260505053556 | 75 | 53 | 2.0 | 12.0 | 0.00 | 0.49 | 0.00 | 85 | 1014.8 |
| 20260505053113 | 75 | 0 | 3.0 | 12.0 | 0.00 | 0.49 | 0.00 | 85 | 1014.7 |
| 20260505052559 | 75 | 0 | 3.0 | 12.0 | 0.00 | 0.49 | 0.00 | 85 | 1014.6 |
| 20260505052058 | 75 | 15 | 1.0 | 7.0 | 0.00 | 0.49 | 0.00 | 85 | 1014.9 |
| 20260505051600 | 75 | 84 | 1.0 | 7.0 | 0.00 | 0.49 | 0.00 | 85 | 1014.9 |
| 20260505051059 | 75 | 114 | 1.0 | 8.0 | 0.00 | 0.49 | 0.00 | 85 | 1014.6 |